Eugene, OR

11:47 AM PST on November 20, 2019 (GMT -0800)
Mahlon Sweet

Weather History for KEUG - September, 2019

Change the Weather History Date:

Friday, September 6, 2019

  Actual Average Record
Temperature  
Mean Temperature 71 °F 64 °F  
Max Temperature 80 °F 80 °F 95 °F (1958)
Min Temperature 61 °F 49 °F 38 °F (2002)
Degree Days  
Heating Degree Days 0 2  
Month to date heating degree days 0 12  
Since 1 July heating degree days 12 79  
Cooling Degree Days 6 2  
Month to date cooling degree days 37 12  
Year to date cooling degree days 345 220  
Growing Degree Days 20 (Base 50)    
Moisture  
Dew Point 58 °F    
Average Humidity 71    
Maximum Humidity 90    
Minimum Humidity 52    
Precipitation  
Precipitation 0.01 in 0.04 in 0.70 in (2016)
Month to date precipitation 0.05 0.20  
Year to date precipitation 23.26 26.21  
Sea Level Pressure  
Sea Level Pressure 30.09 in    
Wind  
Wind Speed 8 mph (SW)    
Max Wind Speed 16 mph    
Max Gust Speed 19 mph    
Visibility 10 miles    
Events      
T = Trace of Precipitation, MM = Missing Value Source: NWS Daily Summary

Daily Weather History Graph

Daily Weather History Graph

Search for Another Location

Airport or City:

Astronomy

Sep. 06, 2019 Rise Set
Actual Time 6:41 AM PDT 7:40 PM PDT
Civil Twilight 6:12 AM PDT 8:09 PM PDT
Nautical Twilight 5:36 AM PDT 8:44 PM PDT
Astronomical Twilight 4:59 AM PDT 9:21 PM PDT
Moon 3:12 PM PDT (9/6) No Moon Set
Length of Visible Light 13h 57m
Length of Day
12h 58m
First Quarter, 57% of the Moon is Illuminated
Sep 6
First Quarter
Sep 13
Full
Sep 21
Last Quarter
Sep 28
New
Oct 5
First Quarter

Hourly Weather History & Observations

Time (PDT) Temp. Dew Point Humidity Pressure Visibility Wind Dir Wind Speed Gust Speed Precip Events Conditions
12:54 AM 63.0 °F 59.0 °F 87% 30.03 in 10.0 mi WSW 4.6 mph - 0.04 in   Mostly Cloudy
1:54 AM 62.1 °F 59.0 °F 90% 30.04 in 10.0 mi South 6.9 mph - 0.01 in   Mostly Cloudy
2:04 AM 63.0 °F 59.0 °F 87% 30.05 in 10.0 mi South 11.5 mph - N/A   Mostly Cloudy
2:36 AM 62.1 °F 59.0 °F 90% 30.04 in 10.0 mi SW 12.7 mph - N/A   Mostly Cloudy
2:54 AM 63.0 °F 59.0 °F 87% 30.05 in 10.0 mi SW 8.1 mph - N/A   Mostly Cloudy
3:17 AM 63.0 °F 57.9 °F 84% 30.05 in 10.0 mi West 9.2 mph - N/A   Overcast
3:54 AM 62.1 °F 57.9 °F 86% 30.06 in 10.0 mi WSW 5.8 mph - N/A   Mostly Cloudy
4:54 AM 63.0 °F 57.9 °F 84% 30.06 in 10.0 mi SW 8.1 mph - N/A   Overcast
5:54 AM 62.1 °F 57.9 °F 86% 30.07 in 10.0 mi SSW 6.9 mph - N/A   Overcast
6:54 AM 61.0 °F 57.9 °F 90% 30.08 in 10.0 mi South 5.8 mph - N/A   Mostly Cloudy
7:54 AM 61.0 °F 57.9 °F 90% 30.11 in 10.0 mi South 8.1 mph - N/A   Mostly Cloudy
8:54 AM 64.9 °F 59.0 °F 81% 30.12 in 10.0 mi South 5.8 mph - N/A   Mostly Cloudy
9:54 AM 66.9 °F 59.0 °F 76% 30.14 in 10.0 mi South 8.1 mph - N/A   Mostly Cloudy
10:54 AM 69.1 °F 59.0 °F 70% 30.14 in 10.0 mi SSW 6.9 mph - N/A   Mostly Cloudy
11:54 AM 70.0 °F 57.9 °F 65% 30.14 in 10.0 mi WSW 5.8 mph - N/A   Mostly Cloudy
12:54 PM 75.0 °F 59.0 °F 57% 30.13 in 10.0 mi Variable 5.8 mph - N/A   Scattered Clouds
1:54 PM 75.9 °F 59.0 °F 56% 30.12 in 10.0 mi West 12.7 mph - N/A   Scattered Clouds
2:54 PM 77.0 °F 59.0 °F 54% 30.11 in 10.0 mi WSW 10.4 mph - N/A   Scattered Clouds
3:54 PM 79.0 °F 59.0 °F 50% 30.09 in 10.0 mi SSW 11.5 mph - N/A   Partly Cloudy
4:54 PM 79.0 °F 59.0 °F 50% 30.09 in 10.0 mi SW 11.5 mph - N/A   Partly Cloudy
5:54 PM 75.9 °F 60.1 °F 58% 30.09 in 10.0 mi SW 11.5 mph - N/A   Partly Cloudy
6:54 PM 73.0 °F 59.0 °F 61% 30.09 in 10.0 mi West 12.7 mph - N/A   Partly Cloudy
7:54 PM 68.0 °F 57.9 °F 70% 30.10 in 10.0 mi WSW 8.1 mph - N/A   Partly Cloudy
8:54 PM 66.0 °F 57.9 °F 75% 30.11 in 10.0 mi WSW 3.5 mph - N/A   Partly Cloudy
9:54 PM 63.0 °F 57.0 °F 81% 30.11 in 10.0 mi Calm Calm - N/A   Clear
10:54 PM 61.0 °F 57.0 °F 87% 30.10 in 10.0 mi Calm Calm - N/A   Partly Cloudy
11:54 PM 59.0 °F 55.0 °F 87% 30.09 in 10.0 mi Calm Calm - N/A   Clear